STARLINK-32152 (60275 NORAD) Tracking and Keplerian Element Data

This shows tracking and keplerian element data for the satellite.

Feedback or suggestion? Click here.




ElementValue
Catalog60275
NameSTARLINK-32152
Epoch Orbit1299
Epoch Day286.27591499
Epoch Year2024
RAAN278.5387
Inclination53.1576
Eccentricity0.00013
Argument of Perigee103.7356
Mean Anonmoly256.3793
Mean Motion15.39619104
Decay Rate0.00017032
L11 60275U 24131W 24286.27591499 .00017032 00000+0 43483-3 0 9996
L22 60275 53.1576 278.5387 0001300 103.7356 256.3793 15.39619104 12993



Live tracking and technical data element details for STARLINK-32152 (NORAD 60275). STARLINK-32152 can be tracked NOW for your location showing map with azimuth and elevation plus other details from your city location.







IsCatalogInMostPopularTable: catalog: 60275, numindb: 14
Update: records affected: 1



GetName: 60275 STARLINK-32152

Hit Count: updated at: Thu, 23 Jan 2025 14:21:44 GMT